7 * 24
多渠道服务支持
STARLINK-11456是美国太空探索技术公司(SpaceX)星链计划的卫星之一,于北京时间2024年11月24日由猎鹰9号火箭发射升空。本次发射是猎鹰9号第400次发射任务,搭载包括该星在内共20颗星链V2 Mini卫星,助力SpaceX推进全球低轨卫星互联网星座构建,进一步完善星链通信网络覆盖能力。
美国
(US)
| 数据来源 | 国际轨道数据 |
| 星历时间: | 2026-09-10T14:06:52+0800 1天前 查看轨道信息 |
| 半长轴: | 6737.586km |
| 偏心率: | 0.0001466 |
| 轨道倾角: | 53.156° |
| 近地点辐角 | 114.321° |
| 升交点赤经 | 241.264° |
| 平近点角 | 245.796° |
| 近地点: | 358.461km |
| 远地点: | 360.437km |
| 周期: | 91.731分钟 |
| 每日圈数: | 15.698074 |